Preview of NWS' New Version of Forecast
This preview is not operational and should not be used for support decisions.

Regional Weather Roundup (RWR)

Issued by National Weather Service (NWS)

                            
000
ASUS43 KBIS 240702
RWRND 

NORTH DAKOTA REGIONAL WEATHER ROUNDUP
NATIONAL WEATHER SERVICE BISMARCK ND
200 AM CDT WED APR 24 2019

NOTE: "FAIR" INDICATES FEW OR NO CLOUDS BELOW 12,000 FEET WITH NO
SIGNIFICANT WEATHER AND/OR OBSTRUCTIONS TO VISIBILITY.


NDZ001>003-009>011-017-240800-
NORTHWEST NORTH DAKOTA
  
CITY           SKY/WX    TMP DP  RH WIND       PRES   REMARKS
WILLISTON      MOCLDY    57  44  62 NW12      29.74S                  
MINOT          CLOUDY    54  35  48 W6        29.70R                  
MINOT AFB      CLOUDY    52  34  50 W7        29.68S                  
$$
 
NDZ018>021-031>035-040>046-240800-
SOUTHWEST NORTH DAKOTA
  
CITY           SKY/WX    TMP DP  RH WIND       PRES   REMARKS
BISMARCK       PTCLDY    52  40  63 NW5       29.76R                  
DICKINSON      MOCLDY    51  40  65 W7        29.77F                  
GARRISON         N/A     52  34  50 W10       29.73R                  
HETTINGER ARPT MOCLDY    44  39  82 CALM      29.83F                  
$$
 
NDZ004>008-012>016-024-026-027-054-240800-
NORTHEAST NORTH DAKOTA
  
CITY           SKY/WX    TMP DP  RH WIND       PRES   REMARKS
GRAND FORKS    PTCLDY    52  43  71 S10       29.66F                  
GRND FRKS AFB  PTCLDY    55  43  62 S9        29.69S                  
DEVILS LAKE    PTCLDY    44  37  76 SW6       29.66F                  
$$
 
NDZ022-023-025-028>030-036>039-047>053-240800-
SOUTHEAST NORTH DAKOTA
  
CITY           SKY/WX    TMP DP  RH WIND       PRES   REMARKS
FARGO          CLOUDY    56  42  59 S16G26    29.74S                  
JAMESTOWN      MOCLDY    53  45  74 S10       29.71S                  
$$